Weather History for Oceana NAS, VA

Change the Weather History Date:

Wednesday, November 9, 2011

  Actual Average Record
Temperature  
Mean Temperature 54 °F -  
Max Temperature 66 °F 59 °F 79 °F (2005)
Min Temperature 43 °F 42 °F 33 °F (1996)
Degree Days  
Heating Degree Days 10    
Growing Degree Days 4 (Base 50)    
Moisture  
Dew Point 51 °F    
Average Humidity 90    
Maximum Humidity 100    
Minimum Humidity 65    
Precipitation  
Precipitation 0.00 in - - ()
Sea Level Pressure  
Sea Level Pressure 30.08 in    
Wind  
Wind Speed 2 mph (NNE)    
Max Wind Speed 8 mph    
Max Gust Speed -    
Visibility 5 miles    
Events Fog    
Averages and records for this station are not official NWS values.
T = Trace of Precipitation, MM = Missing Value Source: NWS Daily Summary

Daily Weather History Graph

Daily Weather History Graph

Search for Another Location

Airport:

Trip Planner

Search our weather history database for the weather conditions in past years. The results will help you decide how hot, cold, wet, or windy it might be!

Date:

Astronomy

Nov. 09, 2011 Rise Set
Actual Time 6:35 AM EST 4:59 PM EST
Civil Twilight 6:08 AM EST 5:26 PM EST
Nautical Twilight 5:37 AM EST 5:57 PM EST
Astronomical Twilight 5:07 AM EST 6:28 PM EST
Moon 4:10 PM EST (11/9) 5:29 AM EST (11/9)
Length of Visible Light 11h 18m
Length of Day
10h 23m
Waxing Gibbous, 99% of the Moon is Illuminated
Nov 9
Waxing Gibbous
Nov 10
Full
Nov 18
Last Quarter
Nov 25
New
Dec 2
First Quarter

Hourly Weather History & Observations

Time (EST) Temp. Windchill Dew Point Humidity Pressure Visibility Wind Dir Wind Speed Gust Speed Precip Events Conditions
12:56 AM 44.1 °F - 43.0 °F 96% 30.19 in 0.2 mi Calm Calm - N/A Fog Fog
1:56 AM 45.0 °F - 44.1 °F 97% 30.18 in 0.5 mi Calm Calm - N/A Fog Fog
2:56 AM 43.0 °F 41.3 °F 42.1 °F 97% 30.17 in 0.2 mi NNW 3.5 mph - N/A Fog Fog
3:56 AM 44.1 °F 42.5 °F 43.0 °F 96% 30.17 in 0.2 mi NNW 3.5 mph - N/A Fog Fog
4:56 AM 44.1 °F - 43.0 °F 96% 30.16 in 0.1 mi Calm Calm - N/A Fog Fog
5:56 AM 45.0 °F - 44.1 °F 97% 30.16 in 0.1 mi Calm Calm - N/A Fog Fog
6:56 AM 44.6 °F - 44.6 °F 100% 30.17 in 0.1 mi Calm Calm - N/A Fog Fog
7:16 AM 46.4 °F - 44.6 °F 93% 30.16 in 0.1 mi Calm Calm - N/A Fog Fog
7:43 AM 50.0 °F - 48.2 °F 94% 30.17 in 3.0 mi Calm Calm - N/A   Mostly Cloudy
7:56 AM 50.0 °F - 50.0 °F 100% 30.17 in 3.0 mi Calm Calm - N/A   Mostly Cloudy
8:56 AM 57.9 °F - 57.9 °F 100% 30.17 in 6.0 mi NNW 5.8 mph - N/A   Scattered Clouds
9:56 AM 64.9 °F - 57.0 °F 75% 30.17 in 10.0 mi NE 5.8 mph - N/A   Scattered Clouds
10:56 AM 64.9 °F - 55.0 °F 70% 30.15 in 10.0 mi NE 6.9 mph - N/A   Mostly Cloudy
11:56 AM 66.0 °F - 54.0 °F 65% 30.13 in 10.0 mi NE 8.1 mph - N/A   Scattered Clouds
12:56 PM 66.0 °F - 55.9 °F 70% 30.09 in 10.0 mi NE 5.8 mph - N/A   Scattered Clouds
1:56 PM 64.9 °F - 55.9 °F 73% 30.07 in 10.0 mi NE 8.1 mph - N/A   Mostly Cloudy
2:56 PM 64.9 °F - 55.9 °F 73% 30.06 in 10.0 mi NE 5.8 mph - N/A   Mostly Cloudy
3:56 PM 64.0 °F - 57.0 °F 78% 30.05 in 10.0 mi NNE 8.1 mph - N/A   Mostly Cloudy
4:56 PM 61.0 °F - 55.9 °F 83% 30.04 in 10.0 mi NNE 4.6 mph - N/A   Mostly Cloudy
5:56 PM 57.9 °F - 55.9 °F 93% 30.04 in 10.0 mi NNE 4.6 mph - N/A   Scattered Clouds
6:56 PM 57.0 °F - 55.0 °F 93% 30.02 in 10.0 mi NE 4.6 mph - N/A   Scattered Clouds
7:56 PM 57.9 °F - 55.9 °F 93% 30.01 in 7.0 mi Calm Calm - N/A Fog Patches of Fog
8:22 PM 53.6 °F - 53.6 °F 100% 29.99 in 2.0 mi Calm Calm - N/A Fog Scattered Clouds
8:56 PM 53.1 °F - 52.0 °F 96% 29.98 in 3.0 mi East 4.6 mph - N/A Fog Partly Cloudy
9:56 PM 53.1 °F - 53.1 °F 100% 29.98 in 4.0 mi Calm Calm - N/A Fog Clear
10:40 PM 51.8 °F - 51.8 °F 100% 29.95 in 2.0 mi Calm Calm - N/A Fog Scattered Clouds
10:56 PM 51.1 °F - 51.1 °F 100% 29.96 in 1.0 mi NW 3.5 mph - N/A   Scattered Clouds
11:07 PM 51.8 °F - 51.8 °F 100% 29.95 in 4.0 mi NW 3.5 mph - N/A Fog Overcast
11:56 PM 55.9 °F - 54.0 °F 93% 29.95 in 6.0 mi Calm Calm - N/A   Mostly Cloudy